Regional Weather Roundup
Issued by NWS

Home | Current Version | Previous Version | Graphics & Text | Print | Product List | Glossary On
Versions: 1 2 3 4 5 6 7 8 9 10 11 12 13 14 15 16 17 18 19 20 21 22 23 24 25 26 27 28 29 30 31 32 33 34 35 36 37 38 39 40 41 42 43 44 45 46 47 48 49 50
000
ASUS43 KMKX 202300
RWRWI

WISCONSIN REGIONAL WEATHER ROUNDUP
NATIONAL WEATHER SERVICE MILWAUKEE/SULLIVAN WI
600 PM CDT SAT SEP 20 2014

NOTE: "FAIR" INDICATES FEW OR NO CLOUDS BELOW 12,000 FEET WITH NO
SIGNIFICANT WEATHER AND/OR OBSTRUCTIONS TO VISIBILITY.

WIZ001-002-006>008-014>016-023>028-210000-
NORTHWEST WISCONSIN

CITY           SKY/WX    TMP DP  RH WIND       PRES   REMARKS
SUPERIOR ARPT  MOSUNNY   65  53  64 W5        29.69S
ASHLAND        MOSUNNY   65  53  65 CALM      29.70F
HAYWARD        MOSUNNY   66  53  63 SW6       29.72F
SIREN          CLOUDY    67  54  64 CALM      29.73F
RICE LAKE      MOSUNNY   69  54  59 W8        29.75S
LADYSMITH      SUNNY     67  53  61 W8        29.75R
EAU CLAIRE     NOT AVBL
MENOMONIE      PTCLDY    72  54  53 W3        29.73S
NEW RICHMOND   CLOUDY    69  57  64 W5        29.75R
OSCEOLA        CLOUDY    69  57  65 W3        29.76S
$$

WIZ003>005-009-010-017-018-210000-
NORTH CENTRAL WISCONSIN

CITY           SKY/WX    TMP DP  RH WIND       PRES   REMARKS
WOODRUFF       CLEAR     69  55  60 NW5       29.71R
RHINELANDER    CLEAR     68  53  58 W9        29.71S
EAGLE RIVER    MOCLDY    66  53  62 NW6       29.70R
LAND O LAKES   CLEAR     64  54  70 NW7       29.72R
PHILLIPS       CLOUDY    66  51  59 W3        29.72R
TOMAHAWK       CLEAR     67  53  61 CALM      29.71S
MEDFORD        MOSUNNY   69  54  58 W12       29.72F
MERRILL        PTCLDY    71  55  57 W10       29.70S
$$

WIZ029-030-035-036-043>047-210000-
CENTRAL WISCONSIN

CITY           SKY/WX    TMP DP  RH WIND       PRES   REMARKS
WAUSAU         PTCLDY    70  55  59 W9        29.70R
MOSINEE        PTCLDY    70  57  64 W10G17    29.72F
MARSHFIELD     SUNNY     71  56  58 W10       29.72F
STEVENS POINT  CLEAR     71  55  58 W9        29.73R
WAUPACA        CLEAR     76  57  50 W8        29.71S
WAUTOMA        NOT AVBL
WISC RAPIDS    CLEAR     72  56  57 W9        29.74S
CAMP DOUGLAS   NOT AVBL
$$

WIZ011>013-019>022-031-037>040-048>050-210000-
NORTHEAST WISCONSIN

CITY           SKY/WX    TMP DP  RH WIND       PRES   REMARKS
ANTIGO         PTCLDY    71  55  58 W8        29.71R
STURGEON BAY   CLEAR     72  63  73 SW14      29.67R
GREEN BAY      CLEAR     73  63  70 SW7       29.68S
MANITOWOC      NOT AVBL
APPLETON       MOCLDY    72  61  68 SW8       29.70F
CLINTONVILLE   CLEAR     73  55  53 W10       29.68S
OSHKOSH        CLEAR     72  63  73 VRB7      29.70F
$$

WIZ032>034-041-042-053>061-210000-
SOUTHWEST WISCONSIN

CITY           SKY/WX    TMP DP  RH WIND       PRES   REMARKS
LA CROSSE      SUNNY     77  58  51 W3        29.74S
SPARTA         SUNNY     74  55  49 NW6       29.75S
VIROQUA        FAIR      74  56  54 W8        29.78S
BOSCOBEL       SUNNY     78  58  49 W7        29.75S
PRAIRIE DU CHI SUNNY     79  53  40 W12       29.76S
PLATTEVILLE    FAIR      77  61  57 SW12G18   29.78F
$$

WIZ056-057-062-063-064-067-068-210000-
SOUTH CENTRAL WISCONSIN

CITY           SKY/WX    TMP DP  RH WIND       PRES   REMARKS
BARABOO/DELLS  SUNNY     75  58  55 W8        29.74F
LONE ROCK      NOT AVBL
WATERTOWN      PTCLDY    75  61  61 W9        29.73F
MADISON        MOCLDY    75  61  61 VRB7      29.75R
MIDDLETON      FAIR      76  61  60 W10       29.75S
MONROE         NOT AVBL
JANESVILLE     PTCLDY    75  61  60 W13       29.76S
$$

WIZ051-052-058>065-066-070>072-210000-
SOUTHEAST WISCONSIN

CITY           SKY/WX    TMP DP  RH WIND       PRES   REMARKS
MILWAUKEE      PTCLDY    74  62  66 SW12      29.74R
WAUKESHA       MOCLDY    72  63  73 SW8       29.76R
MILWAUKEE/TIMM MOCLDY    73  61  64 SW9       29.75S
RACINE         CLEAR     72  65  78 SW12G21   29.77R
BURLINGTON     PTCLDY    72  62  71 SW9       29.76R
KENOSHA        CLEAR     71  66  84 SW8       29.77R
FOND DU LAC    CLEAR     72  62  71 W7        29.72F
SHEBOYGAN      CLEAR     72  61  68 W10       29.71F
WEST BEND      PTCLDY    73  59  60 W14G22    29.73S
JUNEAU         CLEAR     72  62  70 W9        29.74F
$$

LSZ147-162-210000-
LAKE SUPERIOR

STATION/POSITION TIME  TEMP    WIND        PRES    WAVE
                       AIR SEA DIR/SP/G            HT/PER
                 (UTC) (F)     (DEG/KT/KT) (MB)    (FT/S)
W MID LAKE BUOY  2150   52 47  250/ 10/ 12 1004.9S   2/ 4
DEVILS ISLAND    2200   57     250/ 11/ 13 1006.0R
PORT WING        2200   63      30/  7/  9 1005.4F
SAXON HARBOR     2200   63     310/  4/  7 1006.4S
$$

LMZ867-665-643>646-210000-
LAKE MICHIGAN

STATION/POSITION TIME  TEMP    WIND        PRES    WAVE
                       AIR SEA DIR/SP/G            HT/PER
                 (UTC) (F)     (DEG/KT/KT) (MB)    (FT/S)
N MID LAKE BUOY  2150   61 58  230/ 16/ 19 1003.2R   5/ 6
NORTHPORT PIER   2200   71     260/  5/ 11 1004.1R
SISTER BAY       2242          280/  9/ 10   N/A
KEWAUNEE LAKESHO 2200   73     250/  9/ 14 1004.2R
SHEBOYGAN LAKESH 2200   73 55  260/ 13/ 17 1005.9F
PORT WASHINGTON  2200   78     260/ 10/ 14 1006.8
ATWATER BUOY     2200   68     220/ 12/ 14 1007.7F
MILWAUKEE LAKESH 2200   73     230/ 14/ 18   N/A
S MID LAKE BUOY  2150   65 63  210/ 17/ 19 1007.8F   3/ 5
KENOSHA   LAKESH 2200   73     210/  7/  9 1007.1F
$$

TC  - TEMPERATURE IN CELSIUS
VSB - VISIBILITY IN STATUTE MILES
WCI - WIND CHILL INDEX
HX  - HEAT INDEX




USA.gov is the U.S. government's official web portal to all federal, state and local government web resources and services.